Weather History for Ironwood, MI

Change the Weather History Date:

Saturday, January 19, 2013

  Actual Average Record
Temperature  
Mean Temperature 19 °F -  
Max Temperature 33 °F 18 °F 33 °F (2013)
Min Temperature 5 °F 6 °F -16 °F (2008)
Degree Days  
Heating Degree Days 46    
Moisture  
Dew Point 15 °F    
Average Humidity 79    
Maximum Humidity 93    
Minimum Humidity 58    
Precipitation  
Precipitation 0.00 in - - ()
Sea Level Pressure  
Sea Level Pressure 29.64 in    
Wind  
Wind Speed 9 mph (West)    
Max Wind Speed 26 mph    
Max Gust Speed 39 mph    
Visibility 6 miles    
Events      
Averages and records for this station are not official NWS values.
T = Trace of Precipitation, MM = Missing Value Source: NWS Daily Summary

Daily Weather History Graph

Daily Weather History Graph

Search for Another Location

Airport:

Trip Planner

Search our weather history database for the weather conditions in past years. The results will help you decide how hot, cold, wet, or windy it might be!

Date:

Astronomy

Jan. 19, 2013 Rise Set
Actual Time 7:37 AM CST 4:45 PM CST
Civil Twilight 7:03 AM CST 5:19 PM CST
Nautical Twilight 6:26 AM CST 5:56 PM CST
Astronomical Twilight 5:50 AM CST 6:32 PM CST
Moon 11:16 AM CST (1/19) 1:06 AM CST (1/19)
Length of Visible Light 10h 15m
Length of Day
9h 08m
First Quarter, 57% of the Moon is Illuminated
Jan 19
First Quarter
Jan 26
Full
Feb 3
Last Quarter
Feb 10
New
Feb 17
First Quarter

Hourly Weather History & Observations

Time (CST) Temp. Windchill Dew Point Humidity Pressure Visibility Wind Dir Wind Speed Gust Speed Precip Events Conditions
12:15 AM 17.6 °F 9.3 °F 15.8 °F 93% 29.72 in 9.0 mi WSW 5.8 mph - N/A   Overcast
12:35 AM 19.4 °F 14.3 °F 14.0 °F 80% 29.71 in 8.0 mi WSW 3.5 mph - N/A   Overcast
12:55 AM 19.4 °F 11.5 °F 15.8 °F 86% 29.72 in 8.0 mi WSW 5.8 mph - N/A   Overcast
1:15 AM 19.4 °F 10.4 °F 15.8 °F 86% 29.73 in 8.0 mi WSW 6.9 mph - N/A   Overcast
1:35 AM 19.4 °F - 15.8 °F 86% 29.73 in 7.0 mi Calm Calm - N/A   Overcast
1:55 AM 17.6 °F - 15.8 °F 93% 29.73 in 7.0 mi Calm Calm - N/A   Overcast
2:15 AM 19.4 °F 14.3 °F 15.8 °F 86% 29.74 in 7.0 mi WSW 3.5 mph - N/A   Overcast
2:35 AM 19.4 °F - 15.8 °F 86% 29.74 in 7.0 mi Calm Calm - N/A   Overcast
2:55 AM 19.4 °F - 15.8 °F 86% 29.73 in 7.0 mi Calm Calm - N/A   Overcast
3:15 AM 19.4 °F - 15.8 °F 86% 29.73 in 7.0 mi Calm Calm - N/A   Overcast
3:35 AM 19.4 °F - 15.8 °F 86% 29.72 in 7.0 mi Calm Calm - N/A   Overcast
3:55 AM 19.4 °F 12.8 °F 15.8 °F 86% 29.71 in 7.0 mi ESE 4.6 mph - N/A   Overcast
4:15 AM 19.4 °F 14.3 °F 15.8 °F 86% 29.70 in 7.0 mi ESE 3.5 mph - N/A   Overcast
4:35 AM 19.4 °F - 15.8 °F 86% 29.69 in 4.0 mi Calm Calm - N/A   Overcast
4:55 AM 19.4 °F 14.3 °F 15.8 °F 86% 29.67 in 1.2 mi ESE 3.5 mph - N/A   Overcast
5:15 AM 21.2 °F 16.4 °F 15.8 °F 80% 29.67 in 3.0 mi ESE 3.5 mph - N/A   Overcast
5:35 AM 21.2 °F 16.4 °F 17.6 °F 86% 29.66 in 8.0 mi ESE 3.5 mph - N/A   Overcast
5:55 AM 21.2 °F 14.9 °F 17.6 °F 86% 29.65 in 10.0 mi ESE 4.6 mph - N/A   Overcast
6:15 AM 21.2 °F 16.4 °F 15.8 °F 80% 29.64 in 9.0 mi ESE 3.5 mph - N/A   Overcast
6:35 AM 21.2 °F 13.6 °F 15.8 °F 80% 29.62 in 9.0 mi ESE 5.8 mph - N/A   Mostly Cloudy
6:55 AM 21.2 °F 16.4 °F 17.6 °F 86% 29.61 in 8.0 mi East 3.5 mph - N/A   Mostly Cloudy
7:15 AM 21.2 °F 12.6 °F 17.6 °F 86% 29.59 in 8.0 mi SE 6.9 mph - N/A   Mostly Cloudy
7:35 AM 21.2 °F 14.9 °F 17.6 °F 86% 29.62 in 7.0 mi SW 4.6 mph - N/A   Overcast
7:55 AM 21.2 °F 11.7 °F 19.4 °F 93% 29.63 in 6.0 mi SW 8.1 mph - N/A   Overcast
8:15 AM 21.2 °F 13.6 °F 17.6 °F 86% 29.61 in 5.0 mi SSW 5.8 mph - N/A   Overcast
8:35 AM 23.0 °F 15.8 °F 17.6 °F 80% 29.61 in 5.0 mi SW 5.8 mph - N/A   Overcast
8:55 AM 24.8 °F 16.9 °F 19.4 °F 80% 29.60 in 7.0 mi SW 6.9 mph 16.1 mph N/A   Overcast
9:15 AM 24.8 °F 15.3 °F 19.4 °F 80% 29.60 in 7.0 mi SSW 9.2 mph - N/A   Overcast
9:35 AM 26.6 °F 17.5 °F 21.2 °F 80% 29.59 in 6.0 mi SSW 9.2 mph - N/A   Overcast
9:55 AM 28.4 °F 18.5 °F 21.2 °F 74% 29.58 in 7.0 mi SSW 11.5 mph - N/A   Overcast
10:15 AM 28.4 °F 20.4 °F 21.2 °F 74% 29.57 in 7.0 mi SSW 8.1 mph - N/A   Overcast
10:35 AM 28.4 °F 20.4 °F 23.0 °F 80% 29.55 in 8.0 mi SSW 8.1 mph - N/A   Mostly Cloudy
10:55 AM 30.2 °F 20.8 °F 24.8 °F 80% 29.54 in 8.0 mi SSW 11.5 mph 16.1 mph N/A   Mostly Cloudy
11:15 AM 30.2 °F 21.3 °F 24.8 °F 80% 29.52 in 8.0 mi SSW 10.4 mph - N/A   Mostly Cloudy
11:35 AM 32.0 °F 23.6 °F 26.6 °F 80% 29.51 in 5.0 mi SW 10.4 mph - N/A   Mostly Cloudy
11:55 AM 33.8 °F 25.3 °F 26.6 °F 75% 29.49 in 10.0 mi SW 11.5 mph - N/A   Mostly Cloudy
12:15 PM 33.8 °F 23.9 °F 26.6 °F 75% 29.47 in 10.0 mi SW 15.0 mph 19.6 mph N/A   Mostly Cloudy
12:35 PM 33.8 °F 24.3 °F 26.6 °F 75% 29.46 in 10.0 mi WSW 13.8 mph 18.4 mph N/A   Scattered Clouds
12:55 PM 33.8 °F 23.9 °F 26.6 °F 75% 29.46 in 10.0 mi WSW 15.0 mph 18.4 mph N/A   Mostly Cloudy
1:15 PM 33.8 °F 20.8 °F 26.6 °F 75% 29.47 in 9.0 mi West 26.5 mph 31.1 mph N/A   Overcast
1:35 PM 30.2 °F 17.1 °F 24.8 °F 80% 29.47 in 4.0 mi West 21.9 mph 29.9 mph N/A   Overcast
1:55 PM 30.2 °F 16.8 °F 24.8 °F 80% 29.48 in 6.0 mi West 23.0 mph 27.6 mph N/A   Overcast
2:15 PM 28.4 °F 14.1 °F 23.0 °F 80% 29.48 in 2.0 mi West 24.2 mph 32.2 mph N/A   Overcast
2:35 PM 28.4 °F 14.7 °F 21.2 °F 74% 29.47 in 10.0 mi West 21.9 mph 26.5 mph N/A   Overcast
2:55 PM 28.4 °F 16.2 °F 21.2 °F 74% 29.47 in 10.0 mi West 17.3 mph 23.0 mph N/A   Overcast
3:15 PM 28.4 °F 18.0 °F 21.2 °F 74% 29.48 in 10.0 mi West 12.7 mph 20.7 mph N/A   Overcast
3:35 PM 30.2 °F 21.3 °F 23.0 °F 75% 29.48 in 10.0 mi WNW 10.4 mph - N/A   Overcast
3:55 PM 28.4 °F 17.0 °F 19.4 °F 69% 29.49 in 3.0 mi NW 15.0 mph 32.2 mph N/A   Overcast
4:15 PM - - - N/A% 29.51 in 1.8 mi WNW 26.5 mph 33.4 mph N/A   Overcast
4:35 PM 21.2 °F 4.9 °F 14.0 °F 74% 29.54 in 1.5 mi WNW 23.0 mph 32.2 mph N/A   Overcast
4:55 PM 21.2 °F 4.5 °F 12.2 °F 68% 29.56 in 3.0 mi WNW 24.2 mph 29.9 mph N/A   Overcast
5:15 PM 19.4 °F 3.6 °F 10.4 °F 68% 29.58 in 5.0 mi WNW 19.6 mph 31.1 mph N/A   Overcast
5:35 PM 17.6 °F 0.1 °F 8.6 °F 68% 29.60 in 7.0 mi WNW 23.0 mph 33.4 mph N/A   Overcast
5:55 PM - - - N/A% 29.62 in 4.0 mi WNW 24.2 mph 39.1 mph N/A   Overcast
6:15 PM - - - N/A% 29.64 in 5.0 mi NW 25.3 mph 35.7 mph N/A   Overcast
6:35 PM 15.8 °F -1.5 °F 3.2 °F 58% 29.66 in 5.0 mi WNW 20.7 mph 29.9 mph N/A   Overcast
6:55 PM 14.0 °F -3.9 °F 3.2 °F 62% 29.67 in 1.8 mi WNW 20.7 mph 29.9 mph N/A   Overcast
7:15 PM 12.2 °F -7.1 °F 5.0 °F 73% 29.68 in 1.2 mi WNW 23.0 mph 33.4 mph N/A   Overcast
7:35 PM 12.2 °F -5.8 °F 5.0 °F 73% 29.70 in 0.8 mi WNW 19.6 mph 31.1 mph N/A   Overcast
7:55 PM 10.4 °F -10.3 °F 1.4 °F 67% 29.72 in 0.8 mi WNW 25.3 mph 33.4 mph N/A   Overcast
8:15 PM 10.4 °F -9.5 °F 3.2 °F 73% 29.74 in 0.2 mi NW 23.0 mph 32.2 mph N/A   Overcast
8:35 PM 8.6 °F -11.4 °F 1.4 °F 73% 29.75 in 0.5 mi NW 21.9 mph 33.4 mph N/A   Overcast
8:55 PM - - - N/A% 29.77 in 0.8 mi NW 19.6 mph 36.8 mph N/A   Overcast
9:15 PM 6.8 °F -12.4 °F -2.2 °F 67% 29.79 in 1.0 mi WNW 18.4 mph 29.9 mph N/A   Overcast
9:35 PM 6.8 °F -12.9 °F -0.4 °F 72% 29.80 in 0.8 mi NW 19.6 mph 33.4 mph N/A   Overcast
9:55 PM 5.0 °F -16.2 °F -0.4 °F 78% 29.82 in 0.5 mi NW 21.9 mph 27.6 mph N/A   Overcast
10:15 PM 6.8 °F -14.7 °F -0.4 °F 72% 29.83 in 0.5 mi NW 24.2 mph 39.1 mph N/A   Overcast
10:35 PM 6.8 °F -14.3 °F -0.4 °F 72% 29.85 in 0.5 mi NW 23.0 mph 33.4 mph N/A   Overcast
10:55 PM 6.8 °F -12.9 °F 1.4 °F 79% 29.87 in 0.5 mi NW 19.6 mph 31.1 mph N/A   Overcast
11:15 PM 6.8 °F -12.4 °F 1.4 °F 79% 29.88 in 0.5 mi NW 18.4 mph 25.3 mph N/A   Overcast
11:35 PM 6.8 °F -12.9 °F 1.4 °F 79% 29.90 in 0.5 mi NW 19.6 mph 27.6 mph N/A   Overcast